Time,TemperatureF,DewpointF,PressureIn,WindDirection,WindDirectionDegrees,WindSpeedMPH,WindSpeedGustMPH,Humidity,HourlyPrecipIn,Conditions,Clouds,dailyrainin,SoftwareType,DateUTC
2013-02-15 00:05:00,43.9,44.0,29.80,NE,37,7.0,-999.0,100,-99.99,,,0.00,weatherlink.com 1.10,2013-02-14 22:05:00,
2013-02-15 00:20:00,43.9,44.0,29.80,NNE,31,5.0,-999.0,100,-99.99,,,0.00,weatherlink.com 1.10,2013-02-14 22:20:00,
2013-02-15 00:35:00,43.9,44.0,29.79,NNE,30,11.0,-999.0,100,-99.99,,,0.00,weatherlink.com 1.10,2013-02-14 22:35:00,
2013-02-15 00:50:00,43.9,44.0,29.78,NNE,24,10.0,-999.0,100,-99.99,,,0.00,weatherlink.com 1.10,2013-02-14 22:50:00,
2013-02-15 01:06:00,43.9,44.0,29.78,NNE,30,10.0,-999.0,100,-99.99,,,0.00,weatherlink.com 1.10,2013-02-14 23:06:00,
2013-02-15 01:21:00,43.9,44.0,29.77,North,1,10.0,-999.0,100,-99.99,,,0.00,weatherlink.com 1.10,2013-02-14 23:21:00,
2013-02-15 01:36:00,44.2,44.0,29.77,North,11,7.0,-999.0,100,-99.99,,,0.00,weatherlink.com 1.10,2013-02-14 23:36:00,
2013-02-15 01:51:00,44.3,44.0,29.77,NNE,14,18.0,-999.0,100,-99.99,,,0.00,weatherlink.com 1.10,2013-02-14 23:51:00,
2013-02-15 02:06:00,44.5,45.0,29.76,NNE,25,18.0,-999.0,100,-99.99,,,0.00,weatherlink.com 1.10,2013-02-15 00:06:00,
2013-02-15 02:21:00,44.5,45.0,29.75,NNE,16,6.0,-999.0,100,-99.99,,,0.00,weatherlink.com 1.10,2013-02-15 00:21:00,
2013-02-15 02:36:00,44.5,45.0,29.76,NNE,30,12.0,-999.0,100,-99.99,,,0.02,weatherlink.com 1.10,2013-02-15 00:36:00,
2013-02-15 02:51:00,44.5,45.0,29.76,NNE,32,14.0,-999.0,100,-99.99,,,0.02,weatherlink.com 1.10,2013-02-15 00:51:00,
2013-02-15 03:06:00,44.5,45.0,29.75,NE,35,8.0,-999.0,100,-99.99,,,0.02,weatherlink.com 1.10,2013-02-15 01:06:00,
2013-02-15 03:21:00,44.2,44.0,29.75,North,10,13.0,-999.0,100,-99.99,,,0.02,weatherlink.com 1.10,2013-02-15 01:21:00,
2013-02-15 03:36:00,44.2,44.0,29.74,North,0,7.0,-999.0,100,-99.99,,,0.02,weatherlink.com 1.10,2013-02-15 01:36:00,
2013-02-15 03:51:00,44.2,44.0,29.74,NNE,23,12.0,-999.0,100,-99.99,,,0.02,weatherlink.com 1.10,2013-02-15 01:51:00,
2013-02-15 04:06:00,44.2,44.0,29.74,North,7,13.0,-999.0,100,-99.99,,,0.02,weatherlink.com 1.10,2013-02-15 02:06:00,
2013-02-15 04:21:00,44.2,44.0,29.74,NE,40,6.0,-999.0,100,-99.99,,,0.02,weatherlink.com 1.10,2013-02-15 02:21:00,
2013-02-15 04:36:00,44.1,44.0,29.74,NNE,20,24.0,-999.0,100,-99.99,,,0.02,weatherlink.com 1.10,2013-02-15 02:36:00,
2013-02-15 04:51:00,44.1,44.0,29.74,North,8,12.0,-999.0,100,-99.99,,,0.03,weatherlink.com 1.10,2013-02-15 02:51:00,
2013-02-15 05:06:00,43.9,44.0,29.74,NE,35,12.0,-999.0,100,-99.99,,,0.04,weatherlink.com 1.10,2013-02-15 03:06:00,
2013-02-15 05:21:00,43.9,44.0,29.75,NNE,23,13.0,-999.0,100,-99.99,,,0.05,weatherlink.com 1.10,2013-02-15 03:21:00,
2013-02-15 05:37:00,43.9,44.0,29.75,NE,54,13.0,-999.0,100,-99.99,,,0.05,weatherlink.com 1.10,2013-02-15 03:37:00,
2013-02-15 05:52:00,43.9,44.0,29.75,NNE,24,6.0,-999.0,100,-99.99,,,0.06,weatherlink.com 1.10,2013-02-15 03:52:00,
2013-02-15 06:07:00,43.9,44.0,29.75,North,357,14.0,-999.0,100,-99.99,,,0.08,weatherlink.com 1.10,2013-02-15 04:07:00,
2013-02-15 06:22:00,43.6,44.0,29.75,North,10,14.0,-999.0,100,-99.99,,,0.09,weatherlink.com 1.10,2013-02-15 04:22:00,
2013-02-15 06:37:00,43.5,44.0,29.75,NNE,20,7.0,-999.0,100,-99.99,,,0.10,weatherlink.com 1.10,2013-02-15 04:37:00,
2013-02-15 06:52:00,43.3,43.0,29.75,NE,37,12.0,-999.0,100,-99.99,,,0.12,weatherlink.com 1.10,2013-02-15 04:52:00,
2013-02-15 07:07:00,43.2,43.0,29.75,NNE,30,12.0,-999.0,100,-99.99,,,0.13,weatherlink.com 1.10,2013-02-15 05:07:00,
2013-02-15 07:22:00,43.1,43.0,29.75,NNE,21,19.0,-999.0,100,-99.99,,,0.14,weatherlink.com 1.10,2013-02-15 05:22:00,
2013-02-15 07:37:00,42.8,43.0,29.75,North,8,11.0,-999.0,100,-99.99,,,0.14,weatherlink.com 1.10,2013-02-15 05:37:00,
2013-02-15 07:52:00,42.9,43.0,29.76,North,6,11.0,-999.0,100,-99.99,,,0.15,weatherlink.com 1.10,2013-02-15 05:52:00,
2013-02-15 08:07:00,42.9,43.0,29.76,NNE,20,17.0,-999.0,100,-99.99,,,0.15,weatherlink.com 1.10,2013-02-15 06:07:00,
2013-02-15 08:22:00,42.8,43.0,29.76,ENE,69,8.0,-999.0,100,-99.99,,,0.15,weatherlink.com 1.10,2013-02-15 06:22:00,
2013-02-15 08:37:00,42.9,43.0,29.77,NNE,16,11.0,-999.0,100,-99.99,,,0.15,weatherlink.com 1.10,2013-02-15 06:37:00,
2013-02-15 08:52:00,43.1,43.0,29.77,NNE,16,14.0,-999.0,100,-99.99,,,0.16,weatherlink.com 1.10,2013-02-15 06:52:00,
2013-02-15 09:08:00,43.1,43.0,29.77,NNE,20,11.0,-999.0,100,-99.99,,,0.17,weatherlink.com 1.10,2013-02-15 07:08:00,
2013-02-15 09:23:00,42.6,43.0,29.78,NNE,27,14.0,-999.0,100,-99.99,,,0.17,weatherlink.com 1.10,2013-02-15 07:23:00,
2013-02-15 09:38:00,42.6,43.0,29.78,NNE,16,19.0,-999.0,100,-99.99,,,0.18,weatherlink.com 1.10,2013-02-15 07:38:00,
2013-02-15 09:53:00,42.5,43.0,29.79,NNE,18,8.0,-999.0,100,-99.99,,,0.18,weatherlink.com 1.10,2013-02-15 07:53:00,
2013-02-15 10:08:00,42.3,42.0,29.79,NNE,27,8.0,-999.0,100,-99.99,,,0.19,weatherlink.com 1.10,2013-02-15 08:08:00,
2013-02-15 10:23:00,42.2,42.0,29.79,NNE,30,13.0,-999.0,100,-99.99,,,0.20,weatherlink.com 1.10,2013-02-15 08:23:00,
2013-02-15 10:38:00,41.9,42.0,29.80,NNE,23,8.0,-999.0,100,-99.99,,,0.23,weatherlink.com 1.10,2013-02-15 08:38:00,
2013-02-15 10:53:00,41.8,42.0,29.80,NNE,14,7.0,-999.0,100,-99.99,,,0.24,weatherlink.com 1.10,2013-02-15 08:53:00,
2013-02-15 11:08:00,41.9,42.0,29.81,NE,34,2.0,-999.0,100,-99.99,,,0.25,weatherlink.com 1.10,2013-02-15 09:08:00,
2013-02-15 11:23:00,41.6,42.0,29.82,NNW,335,6.0,-999.0,100,-99.99,,,0.28,weatherlink.com 1.10,2013-02-15 09:23:00,
2013-02-15 11:38:00,41.6,42.0,29.82,North,11,13.0,-999.0,100,-99.99,,,0.28,weatherlink.com 1.10,2013-02-15 09:38:00,
2013-02-15 11:53:00,41.6,42.0,29.82,NNE,16,6.0,-999.0,100,-99.99,,,0.29,weatherlink.com 1.10,2013-02-15 09:53:00,
2013-02-15 12:08:00,41.8,42.0,29.83,NE,40,5.0,-999.0,100,-99.99,,,0.30,weatherlink.com 1.10,2013-02-15 10:08:00,
2013-02-15 12:24:00,41.8,42.0,29.83,North,359,5.0,-999.0,100,-99.99,,,0.30,weatherlink.com 1.10,2013-02-15 10:24:00,
2013-02-15 12:39:00,41.8,42.0,29.83,NNE,23,1.0,-999.0,100,-99.99,,,0.31,weatherlink.com 1.10,2013-02-15 10:39:00,
2013-02-15 12:54:00,41.9,42.0,29.83,NW,311,5.0,-999.0,100,-99.99,,,0.31,weatherlink.com 1.10,2013-02-15 10:54:00,
2013-02-15 13:09:00,41.9,42.0,29.84,North,0,4.0,-999.0,100,-99.99,,,0.31,weatherlink.com 1.10,2013-02-15 11:09:00,
2013-02-15 13:24:00,41.8,42.0,29.84,NE,38,8.0,-999.0,100,-99.99,,,0.31,weatherlink.com 1.10,2013-02-15 11:24:00,
2013-02-15 13:39:00,41.9,42.0,29.84,NNE,32,12.0,-999.0,100,-99.99,,,0.31,weatherlink.com 1.10,2013-02-15 11:39:00,
2013-02-15 13:54:00,42.1,42.0,29.84,North,352,6.0,-999.0,100,-99.99,,,0.31,weatherlink.com 1.10,2013-02-15 11:54:00,
2013-02-15 14:09:00,42.1,42.0,29.85,North,3,5.0,-999.0,100,-99.99,,,0.31,weatherlink.com 1.10,2013-02-15 12:09:00,
2013-02-15 14:24:00,42.2,42.0,29.85,North,0,5.0,-999.0,100,-99.99,,,0.31,weatherlink.com 1.10,2013-02-15 12:24:00,
2013-02-15 14:39:00,41.8,42.0,29.86,NNW,332,4.0,-999.0,100,-99.99,,,0.31,weatherlink.com 1.10,2013-02-15 12:39:00,
2013-02-15 14:54:00,41.8,42.0,29.86,North,6,10.0,-999.0,100,-99.99,,,0.32,weatherlink.com 1.10,2013-02-15 12:54:00,
2013-02-15 15:09:00,41.8,42.0,29.86,North,3,3.0,-999.0,100,-99.99,,,0.33,weatherlink.com 1.10,2013-02-15 13:09:00,
2013-02-15 15:24:00,41.8,42.0,29.87,North,3,5.0,-999.0,100,-99.99,,,0.34,weatherlink.com 1.10,2013-02-15 13:24:00,
2013-02-15 15:39:00,41.6,42.0,29.87,WNW,296,10.0,-999.0,100,-99.99,,,0.34,weatherlink.com 1.10,2013-02-15 13:39:00,
2013-02-15 15:55:00,41.5,42.0,29.88,North,6,3.0,-999.0,100,-99.99,,,0.34,weatherlink.com 1.10,2013-02-15 13:55:00,
2013-02-15 16:10:00,41.2,41.0,29.88,North,7,7.0,-999.0,100,-99.99,,,0.35,weatherlink.com 1.10,2013-02-15 14:10:00,
2013-02-15 16:25:00,41.1,41.0,29.89,North,359,8.0,-999.0,100,-99.99,,,0.35,weatherlink.com 1.10,2013-02-15 14:25:00,
2013-02-15 16:40:00,40.6,41.0,29.90,NNW,346,8.0,-999.0,100,-99.99,,,0.36,weatherlink.com 1.10,2013-02-15 14:40:00,
2013-02-15 16:55:00,40.3,40.0,29.90,NNW,343,8.0,-999.0,100,-99.99,,,0.36,weatherlink.com 1.10,2013-02-15 14:55:00,
2013-02-15 17:10:00,40.3,40.0,29.91,NNW,342,12.0,-999.0,100,-99.99,,,0.37,weatherlink.com 1.10,2013-02-15 15:10:00,
2013-02-15 17:25:00,40.2,40.0,29.91,NNE,21,2.0,-999.0,100,-99.99,,,0.38,weatherlink.com 1.10,2013-02-15 15:25:00,
2013-02-15 17:40:00,40.2,40.0,29.92,NNE,20,5.0,-999.0,100,-99.99,,,0.38,weatherlink.com 1.10,2013-02-15 15:40:00,
2013-02-15 17:55:00,39.9,40.0,29.93,North,6,5.0,-999.0,100,-99.99,,,0.38,weatherlink.com 1.10,2013-02-15 15:55:00,
2013-02-15 18:10:00,39.8,40.0,29.94,NNW,329,8.0,-999.0,100,-99.99,,,0.39,weatherlink.com 1.10,2013-02-15 16:10:00,
2013-02-15 18:25:00,39.6,40.0,29.94,North,4,8.0,-999.0,100,-99.99,,,0.39,weatherlink.com 1.10,2013-02-15 16:25:00,
2013-02-15 18:40:00,39.5,40.0,29.94,NNE,30,7.0,-999.0,100,-99.99,,,0.40,weatherlink.com 1.10,2013-02-15 16:40:00,
2013-02-15 18:55:00,39.3,39.0,29.96,NNW,342,5.0,-999.0,100,-99.99,,,0.40,weatherlink.com 1.10,2013-02-15 16:55:00,
2013-02-15 19:10:00,39.3,39.0,29.96,NNW,343,6.0,-999.0,100,-99.99,,,0.41,weatherlink.com 1.10,2013-02-15 17:10:00,
2013-02-15 19:26:00,39.2,39.0,29.97,North,11,6.0,-999.0,100,-99.99,,,0.41,weatherlink.com 1.10,2013-02-15 17:26:00,
2013-02-15 19:41:00,39.2,39.0,29.97,NNE,18,11.0,-999.0,100,-99.99,,,0.41,weatherlink.com 1.10,2013-02-15 17:41:00,
2013-02-15 19:56:00,39.1,39.0,29.98,NE,52,2.0,-999.0,100,-99.99,,,0.41,weatherlink.com 1.10,2013-02-15 17:56:00,
2013-02-15 20:11:00,39.1,39.0,29.98,NNE,16,8.0,-999.0,100,-99.99,,,0.41,weatherlink.com 1.10,2013-02-15 18:11:00,
2013-02-15 20:26:00,39.1,39.0,29.99,North,352,3.0,-999.0,100,-99.99,,,0.41,weatherlink.com 1.10,2013-02-15 18:26:00,
2013-02-15 20:41:00,38.8,39.0,30.00,North,3,8.0,-999.0,100,-99.99,,,0.41,weatherlink.com 1.10,2013-02-15 18:41:00,
2013-02-15 20:56:00,38.6,39.0,30.00,NNW,342,5.0,-999.0,100,-99.99,,,0.42,weatherlink.com 1.10,2013-02-15 18:56:00,
2013-02-15 21:11:00,38.3,38.0,30.00,North,4,13.0,-999.0,100,-99.99,,,0.42,weatherlink.com 1.10,2013-02-15 19:11:00,
2013-02-15 21:26:00,38.2,38.0,30.01,North,353,3.0,-999.0,100,-99.99,,,0.42,weatherlink.com 1.10,2013-02-15 19:26:00,
2013-02-15 21:41:00,38.2,38.0,30.01,North,1,6.0,-999.0,100,-99.99,,,0.42,weatherlink.com 1.10,2013-02-15 19:41:00,
2013-02-15 21:56:00,38.2,38.0,30.01,NNE,13,5.0,-999.0,100,-99.99,,,0.42,weatherlink.com 1.10,2013-02-15 19:56:00,
2013-02-15 22:11:00,38.2,38.0,30.02,NW,319,5.0,-999.0,100,-99.99,,,0.42,weatherlink.com 1.10,2013-02-15 20:11:00,
2013-02-15 22:26:00,38.2,38.0,30.02,North,0,4.0,-999.0,100,-99.99,,,0.42,weatherlink.com 1.10,2013-02-15 20:26:00,
2013-02-15 22:42:00,38.0,38.0,30.02,North,3,5.0,-999.0,100,-99.99,,,0.42,weatherlink.com 1.10,2013-02-15 20:42:00,
2013-02-15 22:57:00,38.2,38.0,30.03,North,356,8.0,-999.0,100,-99.99,,,0.42,weatherlink.com 1.10,2013-02-15 20:57:00,
2013-02-15 23:12:00,38.2,38.0,30.03,North,0,5.0,-999.0,100,-99.99,,,0.42,weatherlink.com 1.10,2013-02-15 21:12:00,
2013-02-15 23:27:00,38.3,38.0,30.04,North,359,3.0,-999.0,100,-99.99,,,0.42,weatherlink.com 1.10,2013-02-15 21:27:00,
2013-02-15 23:42:00,38.5,39.0,30.04,North,0,2.0,-999.0,100,-99.99,,,0.42,weatherlink.com 1.10,2013-02-15 21:42:00,
2013-02-15 23:57:00,38.3,38.0,30.04,North,1,3.0,-999.0,100,-99.99,,,0.00,weatherlink.com 1.10,2013-02-15 21:57:00,